Location: Knowlton
(51.2333°N, 1.2667°E)
Time: 23:11:35
(UTC+00:00)

ZACube-1 - Pass Details

Date: 07 December 2021
Orbit: 582 x 665 km, 97.6° (Epoch: 21 January)

Event Time Altitude Azimuth Distance (km) Brightness Sun altitude
Rises 16:27:20 0° 206° (SSW) 2,873 ? -6.0°
Reaches altitude 10° 16:30:01 10° 224° (SW) 1,990 ? -6.4°
Maximum altitude 16:33:10 19° 270° (W) 1,491 ? -6.8°
Drops below altitude 10° 16:36:23 10° 317° (NW) 2,040 ? -7.3°
Sets 16:39:11 0° 335° (NNW) 2,971 ? -7.7°
